Location: Warszawa
(52.2500°N, 21.0000°E)
Time: 16:13:49
(UTC+01:00)

deb Explorer IX - Visible Passes

Search period start: 27 January 2023 00:00
Search period end: 06 February 2023 00:00
Orbit: 533 x 1050 km, 38.8° (Epoch: 24 January)

Date Brightness Start Highest point End Pass type
(mag) Time Alt. Az. Time Alt. Az. Time Alt. Az.
30 Jan ? 06:40:38 10° SSW 06:42:16 12° S 06:43:56 10° SSE visible
31 Jan ? 06:08:26 10° SSW 06:09:52 12° S 06:11:20 10° SSE visible
01 Feb ? 05:36:12 10° S 05:37:28 11° S 05:38:44 10° SSE visible
02 Feb ? 05:03:56 10° S 05:05:02 11° S 05:06:09 10° SSE visible
03 Feb ? 04:32:32 11° S 04:32:35 11° S 04:33:34 10° SSE visible
03 Feb ? 06:16:00 10° SSW 06:17:32 12° S 06:19:05 10° SSE visible
04 Feb ? 05:43:25 10° SSW 05:45:03 12° S 05:46:41 10° SSE visible
05 Feb ? 05:11:20 11° SSW 05:12:33 12° S 05:14:19 10° SSE visible
